Powrót do katalogu

STARLINK-38173

AktywnyŁącznośćSSO
NORAD 100151·PAYLOAD·🇺🇸 United States

Wystrzelony Jul 25, 2026 z Vandenberg Space Force Base

Loading…

Następne Przeloty (najbliższe 24 godziny)

TLE

ŚwieżeSource: Space-Track

Epoka: Sep 14, 2026, 14:55 UTC

1 A0151U 26171D   26257.62164995 -.00868652  00000-0 -28096-1 0  9991
2 A0151  97.2834 290.1222 0000815 165.7029 194.4238 15.34669687  7995

Śledź STARLINK-38173 w czasie rzeczywistym z AllMySat

Download on the App Store